timestamp,wind_dir_avg,wind_spd_avg,wind_spd_max_dir,wind_spd_gust,battery_voltage,lat,long
2021-02-20 00:04:01+00:00,306.0,4.87,307.0,5.72,12.49,47.59359,-54.27349
2021-02-20 00:14:01+00:00,306.0,5.33,299.0,6.16,12.41,47.59359,-54.27349
2021-02-20 00:24:01+00:00,306.0,6.53,303.0,7.88,12.41,47.59359,-54.27349
2021-02-20 00:34:01+00:00,309.0,4.85,310.0,5.58,12.41,47.59359,-54.27349
2021-02-20 00:44:01+00:00,301.0,4.25,284.0,5.63,12.41,47.59359,-54.27349
2021-02-20 00:54:01+00:00,306.0,5.53,307.0,6.72,12.41,47.59359,-54.27349
2021-02-20 01:04:01+00:00,291.0,4.64,282.0,6.04,12.41,47.59359,-54.27349
2021-02-20 01:14:01+00:00,295.0,4.88,299.0,5.76,12.41,47.59359,-54.27349
2021-02-20 01:24:01+00:00,292.0,4.59,299.0,5.53,12.41,47.59359,-54.27349
2021-02-20 01:34:01+00:00,287.0,4.27,292.0,5.25,12.41,47.59359,-54.27349
2021-02-20 01:44:01+00:00,299.0,4.92,301.0,5.84,12.41,47.59359,-54.27349
2021-02-20 01:54:01+00:00,308.0,5.76,310.0,6.62,12.41,47.59359,-54.27349
2021-02-20 02:04:01+00:00,306.0,4.94,309.0,5.7,12.41,47.59359,-54.27349
2021-02-20 02:14:01+00:00,313.0,4.16,322.0,5.35,12.25,47.59359,-54.27349
2021-02-20 02:24:01+00:00,326.0,5.65,318.0,7.51,12.25,47.59359,-54.27349
2021-02-20 02:34:01+00:00,325.0,5.58,319.0,6.74,12.25,47.59359,-54.27349
2021-02-20 02:44:01+00:00,326.0,5.67,318.0,7.52,12.25,47.59359,-54.27349
2021-02-20 02:54:01+00:00,321.0,6.11,312.0,7.71,12.25,47.59359,-54.27349
2021-02-20 03:04:01+00:00,317.0,4.77,304.0,5.96,12.25,47.59359,-54.27349
2021-02-20 03:14:01+00:00,305.0,5.33,301.0,6.64,12.25,47.59359,-54.27349
2021-02-20 03:24:01+00:00,312.0,4.66,300.0,6.01,12.25,47.59359,-54.27349
2021-02-20 03:34:01+00:00,314.0,4.68,303.0,6.51,12.25,47.59359,-54.27349
2021-02-20 03:44:01+00:00,322.0,6.29,320.0,7.51,12.25,47.59359,-54.27349
2021-02-20 03:54:01+00:00,323.0,5.26,307.0,6.62,12.25,47.59359,-54.27349
2021-02-20 04:04:01+00:00,332.0,5.89,322.0,7.19,12.25,47.59359,-54.27349
2021-02-20 04:14:01+00:00,331.0,6.33,338.0,7.24,12.25,47.59359,-54.27349
2021-02-20 04:24:01+00:00,327.0,5.57,314.0,6.37,12.25,47.59359,-54.27349
2021-02-20 04:34:01+00:00,336.0,5.06,328.0,6.28,12.25,47.59359,-54.27349
2021-02-20 04:44:01+00:00,334.0,5.2,336.0,5.97,12.25,47.59359,-54.27349
2021-02-20 04:54:01+00:00,344.0,7.22,325.0,8.14,12.25,47.59359,-54.27349
2021-02-20 05:04:01+00:00,341.0,7.19,346.0,7.8,12.25,47.59359,-54.27349
2021-02-20 05:14:01+00:00,342.0,7.01,337.0,8.1,12.17,47.59359,-54.27349
2021-02-20 05:24:01+00:00,350.0,6.56,343.0,7.14,12.17,47.59359,-54.27349
2021-02-20 05:34:01+00:00,356.0,6.98,359.0,9.91,12.17,47.59359,-54.27349
2021-02-20 05:44:01+00:00,1.0,6.55,0.0,7.08,12.17,47.59359,-54.27349
2021-02-20 05:54:01+00:00,0.0,6.56,2.0,7.92,12.17,47.59359,-54.27349
2021-02-20 06:04:01+00:00,350.0,6.7,349.0,7.63,12.17,47.59359,-54.27349
2021-02-20 06:14:01+00:00,352.0,6.76,350.0,7.61,12.09,47.59359,-54.27349
2021-02-20 06:24:01+00:00,2.0,5.85,0.0,6.84,12.09,47.59359,-54.27349
2021-02-20 06:34:01+00:00,359.0,5.35,1.0,6.18,12.09,47.59359,-54.27349
2021-02-20 06:44:01+00:00,357.0,5.14,12.0,6.24,12.09,47.59359,-54.27349
2021-02-20 06:54:01+00:00,356.0,5.32,358.0,6.6,12.09,47.59359,-54.27349
2021-02-20 07:04:01+00:00,0.0,4.9,2.0,5.81,12.09,47.59359,-54.27349
2021-02-20 07:14:01+00:00,351.0,5.27,352.0,6.19,12.17,47.59359,-54.27349
2021-02-20 07:24:01+00:00,357.0,5.89,0.0,6.36,12.17,47.59359,-54.27349
2021-02-20 07:34:01+00:00,355.0,5.68,5.0,6.55,12.17,47.59359,-54.27349
2021-02-20 07:44:01+00:00,0.0,6.19,0.0,7.17,12.17,47.59359,-54.27349
2021-02-20 07:54:01+00:00,359.0,5.72,0.0,7.54,12.17,47.59359,-54.27349
2021-02-20 08:04:01+00:00,9.0,5.64,6.0,6.41,12.17,47.59359,-54.27349
2021-02-20 08:14:01+00:00,9.0,5.36,12.0,6.35,12.17,47.59359,-54.27349
2021-02-20 08:24:01+00:00,18.0,5.45,13.0,6.47,12.17,47.59359,-54.27349
2021-02-20 08:34:01+00:00,11.0,4.73,11.0,5.92,12.17,47.59359,-54.27349
2021-02-20 08:44:01+00:00,24.0,5.73,38.0,7.08,12.17,47.59359,-54.27349
2021-02-20 08:54:01+00:00,29.0,6.06,44.0,7.94,12.17,47.59359,-54.27349
2021-02-20 09:04:01+00:00,35.0,4.72,36.0,5.91,12.17,47.59359,-54.27349
2021-02-20 09:14:01+00:00,31.0,5.06,35.0,6.11,12.09,47.59359,-54.27349
2021-02-20 09:24:01+00:00,9.0,4.44,7.0,5.38,12.09,47.59359,-54.27349
2021-02-20 09:34:01+00:00,21.0,3.91,27.0,4.5,12.09,47.59359,-54.27349
2021-02-20 09:44:01+00:00,36.0,5.28,36.0,6.15,12.09,47.59359,-54.27349
2021-02-20 09:54:01+00:00,49.0,5.58,60.0,7.16,12.09,47.59359,-54.27349
2021-02-20 10:04:01+00:00,32.0,5.75,43.0,7.09,12.09,47.59359,-54.27349
2021-02-20 10:14:01+00:00,41.0,5.76,29.0,6.88,12.17,47.59359,-54.27349
2021-02-20 10:24:01+00:00,36.0,6.07,55.0,6.88,12.17,47.59359,-54.27349
2021-02-20 10:34:01+00:00,43.0,7.2,42.0,8.12,12.17,47.59359,-54.27349
2021-02-20 10:44:01+00:00,48.0,6.56,52.0,7.76,12.17,47.59359,-54.27349
2021-02-20 10:54:01+00:00,35.0,6.77,46.0,8.75,12.17,47.59359,-54.27349
2021-02-20 11:04:01+00:00,38.0,6.47,50.0,7.61,12.17,47.59359,-54.27349
2021-02-20 11:14:01+00:00,44.0,6.4,44.0,6.99,12.17,47.59359,-54.27349
2021-02-20 11:24:01+00:00,39.0,7.9,41.0,8.96,12.17,47.59359,-54.27349
2021-02-20 11:34:01+00:00,46.0,7.46,47.0,8.41,12.17,47.59359,-54.27349
2021-02-20 11:44:01+00:00,44.0,7.29,40.0,8.84,12.17,47.59359,-54.27349
2021-02-20 11:54:01+00:00,39.0,5.69,38.0,6.95,12.17,47.59359,-54.27349
2021-02-20 12:04:01+00:00,35.0,6.28,35.0,7.31,12.17,47.59359,-54.27349
2021-02-20 12:14:01+00:00,35.0,5.63,35.0,7.09,13.44,47.59359,-54.27349
2021-02-20 12:24:01+00:00,50.0,6.38,52.0,7.67,13.44,47.59359,-54.27349
2021-02-20 12:34:01+00:00,39.0,5.79,46.0,7.23,13.44,47.59359,-54.27349
2021-02-20 12:44:01+00:00,53.0,5.37,52.0,6.63,13.44,47.59359,-54.27349
2021-02-20 12:54:01+00:00,54.0,5.56,55.0,7.16,13.44,47.59359,-54.27349
2021-02-20 13:04:01+00:00,56.0,6.16,58.0,7.29,13.44,47.59359,-54.27349
2021-02-20 13:14:01+00:00,50.0,7.29,52.0,8.77,13.68,47.59359,-54.27349
2021-02-20 13:24:01+00:00,57.0,6.87,56.0,7.9,13.68,47.59359,-54.27349
2021-02-20 13:34:01+00:00,61.0,6.67,60.0,7.69,13.68,47.59359,-54.27349
2021-02-20 13:44:01+00:00,70.0,6.3,71.0,7.22,13.68,47.59359,-54.27349
2021-02-20 13:54:01+00:00,69.0,6.31,64.0,7.39,13.68,47.59359,-54.27349
2021-02-20 14:04:01+00:00,53.0,6.97,56.0,8.07,13.68,47.59359,-54.27349
2021-02-20 14:14:01+00:00,63.0,5.09,61.0,7.17,13.68,47.59359,-54.27349
2021-02-20 14:24:01+00:00,69.0,5.45,66.0,6.63,13.68,47.59359,-54.27349
2021-02-20 14:34:01+00:00,64.0,6.58,64.0,7.23,13.68,47.59359,-54.27349
2021-02-20 14:44:01+00:00,49.0,4.29,58.0,4.98,13.68,47.59359,-54.27349
2021-02-20 14:54:01+00:00,56.0,4.45,54.0,5.64,13.68,47.59359,-54.27349
2021-02-20 15:04:01+00:00,34.0,5.77,35.0,6.7,13.68,47.59359,-54.27349
2021-02-20 15:14:01+00:00,60.0,6.19,56.0,7.36,13.6,47.59359,-54.27349
2021-02-20 15:24:01+00:00,44.0,6.68,47.0,8.32,13.6,47.59359,-54.27349
2021-02-20 15:34:01+00:00,36.0,7.95,32.0,9.43,13.6,47.59359,-54.27349
2021-02-20 15:44:01+00:00,55.0,7.49,57.0,9.21,13.6,47.59359,-54.27349
2021-02-20 15:54:01+00:00,44.0,8.36,50.0,9.87,13.6,47.59359,-54.27349
2021-02-20 16:04:01+00:00,43.0,7.82,36.0,9.23,13.6,47.59359,-54.27349
2021-02-20 16:14:01+00:00,61.0,7.76,63.0,8.46,13.68,47.59359,-54.27349
2021-02-20 16:24:01+00:00,66.0,7.67,57.0,8.98,13.68,47.59359,-54.27349
2021-02-20 16:34:01+00:00,57.0,8.44,47.0,9.86,13.68,47.59359,-54.27349
2021-02-20 16:44:01+00:00,57.0,7.12,54.0,8.51,13.68,47.59359,-54.27349
2021-02-20 16:54:01+00:00,74.0,6.09,72.0,7.33,13.68,47.59359,-54.27349
2021-02-20 17:04:01+00:00,67.0,5.95,67.0,8.3,13.68,47.59359,-54.27349
2021-02-20 17:14:01+00:00,54.0,7.5,55.0,9.16,13.76,47.59359,-54.27349
2021-02-20 17:24:01+00:00,59.0,7.43,61.0,9.01,13.76,47.59359,-54.27349
2021-02-20 17:34:01+00:00,55.0,7.49,58.0,8.48,13.76,47.59359,-54.27349
2021-02-20 17:44:01+00:00,59.0,7.9,58.0,9.37,13.76,47.59359,-54.27349
2021-02-20 17:54:01+00:00,65.0,6.74,66.0,7.61,13.76,47.59359,-54.27349
2021-02-20 18:04:01+00:00,68.0,8.19,69.0,10.23,13.76,47.59359,-54.27349
2021-02-20 18:14:01+00:00,53.0,6.89,55.0,8.28,13.84,47.59359,-54.27349
2021-02-20 18:24:01+00:00,51.0,7.39,55.0,8.71,13.84,47.59359,-54.27349
2021-02-20 18:34:01+00:00,62.0,7.33,63.0,8.81,13.84,47.59359,-54.27349
2021-02-20 18:44:01+00:00,56.0,8.6,52.0,9.94,13.84,47.59359,-54.27349
2021-02-20 18:54:01+00:00,58.0,9.18,55.0,10.38,13.84,47.59359,-54.27349
2021-02-20 19:04:01+00:00,51.0,9.69,54.0,10.82,13.84,47.59359,-54.27349
2021-02-20 19:14:01+00:00,58.0,8.23,56.0,9.09,13.68,47.59359,-54.27349
2021-02-20 19:24:01+00:00,54.0,9.25,55.0,10.34,13.68,47.59359,-54.27349
2021-02-20 19:34:01+00:00,45.0,9.02,45.0,11.18,13.68,47.59359,-54.27349
2021-02-20 19:44:01+00:00,67.0,8.37,70.0,9.48,13.68,47.59359,-54.27349
2021-02-20 19:54:01+00:00,61.0,9.58,55.0,11.16,13.68,47.59359,-54.27349
2021-02-20 20:04:01+00:00,58.0,8.86,53.0,10.72,13.68,47.59359,-54.27349
2021-02-20 20:14:01+00:00,55.0,10.2,54.0,11.31,13.29,47.59359,-54.27349
2021-02-20 20:24:01+00:00,61.0,9.78,60.0,11.58,13.29,47.59359,-54.27349
2021-02-20 20:34:01+00:00,66.0,9.18,68.0,10.33,13.29,47.59359,-54.27349
2021-02-20 20:44:01+00:00,56.0,10.22,45.0,12.63,13.29,47.59359,-54.27349
2021-02-20 20:54:01+00:00,49.0,9.66,53.0,10.91,13.29,47.59359,-54.27349
2021-02-20 21:04:01+00:00,55.0,8.96,53.0,11.28,13.29,47.59359,-54.27349
2021-02-20 21:14:01+00:00,55.0,8.24,54.0,10.28,12.65,47.59359,-54.27349
2021-02-20 21:24:01+00:00,52.0,9.42,52.0,10.71,12.65,47.59359,-54.27349
2021-02-20 21:34:01+00:00,55.0,10.4,65.0,12.26,12.65,47.59359,-54.27349
2021-02-20 21:44:01+00:00,58.0,8.54,61.0,10.57,12.65,47.59359,-54.27349
2021-02-20 21:54:01+00:00,58.0,9.45,60.0,10.8,12.65,47.59359,-54.27349
2021-02-20 22:04:01+00:00,56.0,8.07,50.0,10.33,12.65,47.59359,-54.27349
2021-02-20 22:14:01+00:00,56.0,8.79,56.0,10.31,12.49,47.59359,-54.27349
2021-02-20 22:24:01+00:00,51.0,8.51,51.0,9.83,12.49,47.59359,-54.27349
2021-02-20 22:34:01+00:00,50.0,9.26,46.0,10.88,12.49,47.59359,-54.27349
2021-02-20 22:44:01+00:00,51.0,9.43,51.0,10.56,12.49,47.59359,-54.27349
2021-02-20 22:54:01+00:00,37.0,9.2,40.0,11.26,12.49,47.59359,-54.27349
2021-02-20 23:04:01+00:00,43.0,8.46,40.0,10.91,12.49,47.59359,-54.27349
2021-02-20 23:14:01+00:00,29.0,8.9,23.0,10.19,12.41,47.59359,-54.27349
2021-02-20 23:24:01+00:00,51.0,9.75,45.0,12.18,12.41,47.59359,-54.27349
2021-02-20 23:34:01+00:00,50.0,10.02,52.0,11.34,12.41,47.59359,-54.27349
2021-02-20 23:44:01+00:00,49.0,10.56,47.0,12.74,12.41,47.59359,-54.27349
2021-02-20 23:54:01+00:00,42.0,9.56,45.0,11.15,12.41,47.59359,-54.27349
